Weather in Troitskaya

Russia / Republic of Ingushetia     43°18′21″N   44°59′21″E
temp.,
°C
wind,
m/s
gust,
m/s
humid.,
%
clouds,
%
prec.,
mm/h
press.,
hPa
HPBL,
m
21 january, fri
fri2100:00−9sw229320 0.0 102418
03:00−10ssw22878 0.0 102525
06:00−7ssw1176100 0.0 102429
09:00−3sse1156100 0.0 102360
12:00+1e23534 0.0 1020256
15:00+1e24520 0.0 1020245
18:00−5se22854 0.0 102117
21:00−5s21833 0.0 102012
22 january, sat
sat2200:00−5ssw22751 0.0 101913
03:00−5s227284 0.0 101712
06:00−5s21695 0.0 101512
09:000s11598 0.0 101335
12:00+4nne1149100 0.0 1011151
15:00+3wnw2457100 0.0 1012272
18:00−2wsw3479100 0.0 101554
21:00−3wsw3480100 0.0 101560
23 january, sun
sun2300:00−3wsw3484100 0.0 101559
03:00−4wsw2286100 0.0 101434
06:00−5sw2288100 0.0 101325
09:00−2ese117798 0.0 101286
12:00+1ene34674 0.0 1009440
15:00+2e33655 0.0 1008438
18:00−2w12855 0.0 101112
21:00−3wsw238853 0.0 101238
24 january, mon
mon2400:00−3wsw2288100 0.0 101325
03:00−3sw228812 0.0 101319
06:00−4ssw22886 0.0 101412
09:00−1ese1176100 0.0 101587
12:00+2ene1266100 0.0 1014402
15:00+3nne1167100 0.0 1014471
18:00−1wsw1186100 0.0 101711
21:00−2wsw22875 0.0 102025
25 january, tue
tue2500:00−2wsw368876 0.0 1022110
03:000wsw4885100 0.0 1023508
06:000w369498 0.1 1024262
09:00−1nw3692100 0.6 1026478
12:00+1wnw246883 0.3 1026672
15:00+2n22666 0.3 1025617
18:00−3nw1188100 0.0 102610
21:00−3e118968 0.0 102411